Location: Brantley
(31.5822°N, 86.2569°W)
Time: 05:21:54
(UTC+00:00)

A-11 Canister half - Pass Details

Date: 19 February 2026
Orbit: 1524 x 1683 km, 47.3° (Epoch: 14 March)

Event Time Altitude Azimuth Distance (km) Brightness Sun altitude
Rises 01:02:55 0° 294° (WNW) 4,687 12.7 -19.5°
Reaches altitude 10° 01:06:33 10° 305° (NW) 3,695 11.8 -20.2°
Maximum altitude 01:14:27 30° 4° (N) 2,468 10.0 -21.9°
Enters shadow 01:18:59 21° 45° (NE) 2,936 10.1 -22.9°
